C/2008 J6 (Hill)
Epoch 2008 Apr. 4.0 TT = JDT 2454560.5  
T 2008 Apr. 10.94350 TT                                 Nakano
q   2.0035036            (2000.0)            P               Q
z  -0.0011330      Peri.   10.70340     +0.57978922     +0.52489174
 +/-0.0000057      Node   298.17827     -0.78999096     +0.17497909
e   1.0022700      Incl.   44.98727     -0.19939595     +0.83298918
From 360 observations 2008 May 14-Nov. 30, mean residual 0".63.
   (1/a)org.= +0.000007, (1/a)fut.= -0.000499 (+/-0.000006), Q= 7.
Residuals in seconds of arc 
2008/                     080617 H06  0.6+  0.8+    080725 204  0.1-  0.1-  
080514 703  1.4-  0.4+    080619 213  0.2+  0.5+    080725 204  0.2-  0.1-  
080514 703  0.6-  1.5+    080619 213  0.6-  0.5+    080725 900  0.6+  0.6-  
080514 703  1.1-  0.1+    080619 213  1.5-  0.4+    080725 900  0.3-  0.1-  
080514 703  0.3-  0.3+    080621 J70  0.2-  0.9+    080725 B69  1.2+  0.1-  
080514 F85  0.1-  0.3-    080621 J70  0.8+  1.6+    080726 B42  0.1-  0.7-  
080514 F85  0.2+  0.1-    080621 J70  0.2-  1.4+    080726 B42  0.8-  1.1+  
080514 900  0.4-  1.0-    080622 232  0.3-  0.3-    080726 A77  0.3+  0.2-  
080514 900 (0.1+  3.4+)   080622 232  0.4-  0.1-    080727 900  0.1-  0.6-  
080514 900  0.4-  0.8+    080622 232  0.3-  0.7-    080727 900  0.1+  0.1-  
080514 900  1.2-  0.6+    080622 213  0.6-  0.4-    080727 B49  0.8+  1.8-  
080514 900 (0.4+  4.6+)   080622 213  0.6-  0.4-    080728 B19 (2.3+  9.2-) 
080515 H06  1.5+  0.4-    080622 213  0.4-  0.3-    080728 B19 (2.8+ 11.0-) 
080515 H06  0.9+  0.2-    080623 A13  0.4-  0.3+    080728 B19 (3.2+ 12.5-) 
080515 854  0.9-  0.2-    080623 204  0.5+  0.2-    080728 J97  0.6-  0.3+  
080515 854  1.4-  0.8-    080623 A13  0.7-  0.3-    080729 056  0.4+  0.9-  
080515 H06  0.3-  0.0     080623 A13  0.7+  0.6-    080729 056  0.0   0.6-  
080515 854  1.0-  0.3-    080624 204  0.0   0.1+    080729 056  0.1+  0.1-  
080515 G96  1.7-  1.4-    080627 J51 (0.4+  2.4-)   080730 J47  0.5-  0.2-  
080515 G96  0.9-  0.9-    080627 J51 (0.4+  2.5-)   080730 J47  1.3-  0.9-  
080515 G96  1.5-  1.5-    080627 J51  1.6+  0.7-    080730 J47  1.2-  1.4-  
080515 G96  1.5-  0.5-    080628 850  0.1+  0.2-    080730 J47  0.2-  0.5+  
080515 349  1.6+  0.4+    080628 850  0.2-  0.2-    080801 900  0.0   0.9-  
080515 349  1.3+  0.6+    080629 151  0.7-  0.5-    080801 900  0.4-  0.2-  
080515 349  1.0+  0.2+    080629 151  1.1-  0.5-    080801 213  1.6-  0.1-  
080516 H51  1.5+  0.4-    080629 151  0.6-  0.1-    080801 213  0.0   0.0   
080516 H51  0.2+  0.1-    080629 151  0.8-  0.3-    080801 235  0.1+  0.3-  
080516 H51  1.4+  0.4+    080629 151  0.8-  0.3-    080802 349  0.3+  0.3-  
080516 H51  0.2+  0.9-    080630 A77  0.3-  0.4-    080802 349  0.2+  0.5-  
080516 H51  0.1-  0.0     080630 A77  0.1+  0.3-    080802 349  0.2+  0.6-  
080516 H51  0.4-  0.0     080630 A77  0.6-  0.6-    080803 104  0.4-  0.2+  
080516 H51  0.7-  0.0     080630 215  0.8-  0.4-    080803 104  0.5-  0.0   
080516 H51  0.5+  0.6-    080630 215  0.8-  0.0     080803 104  0.3-  0.1-  
080516 H51  0.6+  0.1-    080630 215 (2.0-  0.2+)   080803 056  0.1-  0.5-  
080516 H51  1.0+  0.2-    080701 850 (1.1-  2.4+)   080803 056  0.1+  0.6-  
080516 367  1.0+  0.3+    080701 850  0.4-  0.9-    080803 056  0.1+  0.1-  
080516 367  0.4+  0.1+    080701 585  1.7+  1.1+    080804 J51  0.4+  0.2+  
080516 367  0.7+  0.4+    080701 629  0.2+  0.2+    080804 J51  0.0   0.0   
080516 367  1.0+  0.6+    080701 585  0.4+  0.1+    080804 J51  0.1-  0.0   
080517 H06  1.9-  0.4+    080701 585  0.3+  0.4-    080805 H45  0.5+  0.3-  
080517 H06  0.6-  1.2-    080701 629  0.3+  0.5+    080805 H45  0.5+  0.5-  
080518 J24  1.1-  1.0-    080701 585  0.3-  0.0     080805 H45  0.4+  0.4+  
080518 J24  0.7-  0.5-    080701 585  0.3+  0.6+    080805 H45  0.5+  0.0   
080518 J24 (1.9-  3.8-)   080701 585  0.7+  0.1-    080805 H45  0.5+  0.0   
080519 J24  1.5-  1.3-    080701 629  0.1+  0.2-    080805 H45  0.5+  0.1+  
080519 J24 (1.3-  2.2-)   080701 585  0.2+  0.8+    080807 H45  0.6+  0.1+  
080519 J24 (1.0-  2.0-)   080702 204  0.1+  0.1+    080807 H45  0.3+  0.3+  
080520 349  0.1+  0.0     080702 J24  0.2+  1.1+    080807 H45  0.4+  0.0   
080520 349  0.2+  0.2-    080702 J24  0.0   0.6+    080807 H45  0.3+  0.4+  
080522 J40 (2.0+  1.1+)   080702 J24  0.2+  0.0     080807 H45  0.8+  0.5+  
080522 J40  0.5+  1.2-    080702 B42 (1.0+  2.1+)   080809 H45  0.4+  0.1-  
080522 J40  0.9+  0.3+    080702 B42  0.6-  1.5+    080809 H45  0.6+  0.2-  
080522 J40 (0.8-  2.2+)   080704 349  0.2-  0.4-    080809 H45  0.4+  0.1-  
080523 J51  0.0   0.3+    080704 349  0.2-  0.5-    080809 H45  0.3+  0.5+  
080523 J51  0.1+  0.4+    080704 349  0.1-  0.3-    080809 H45  0.3+  0.1-  
080523 J51  0.2+  0.4-    080705 204  0.2+  0.2+    080809 H45  0.3+  0.2+  
080525 J47  0.4+  0.6+    080705 204  0.1-  0.2+    080809 900  1.0-  0.0   
080525 J47  0.4-  0.6+    080707 H45  0.4+  0.5-    080809 900 (0.4+  2.4+) 
080525 J47  0.5+  0.5+    080707 H45  0.3+  0.4-    080810 372  0.5+  0.5+  
080526 461  0.1-  0.9+    080707 H45  0.2+  0.3+    080810 372  0.9+  0.9+  
080526 461  0.3+  0.7+    080707 H45  0.6+  0.4-    080810 372  0.2+  0.7+  
080526 900  0.7-  1.4-    080707 H45  0.7+  0.2-    080814 B42  1.3+  1.1-  
080526 900  0.4-  1.5+    080707 H45  0.6+  0.5-    080814 B42  1.1-  1.4+  
080527 118  0.2+  0.3+    080707 372  0.1-  0.2+    080815 349  0.0   0.3+  
080527 118  1.2+  0.3-    080708 J47  0.1-  0.5+    080815 349  0.7+  0.1-  
080529 673  1.0+  0.9+    080708 J47  0.3-  0.1+    080815 349  0.6+  0.3-  
080529 673  1.0+  1.0+    080708 J47  0.0   0.2+    080816 213  0.2+  0.0   
080529 673  0.6+  0.7+    080708 J47  0.4-  0.1-    080816 213  0.1-  0.1+  
080529 673  0.8+  0.9+    080709 945  0.2+  1.2+    080816 213  0.3-  0.0   
080531 300  0.2-  0.0     080709 945  0.5-  1.3+    080816 B49  0.9+  1.8-  
080531 300  0.4-  0.2-    080709 945  0.9-  1.1+    080816 J47 (2.1-  0.9-) 
080531 300  0.2-  0.2-    080709 H45  0.7+  0.2+    080816 J47  1.8-  1.5-  
080531 300  0.0   0.6-    080709 H45  0.7+  0.1-    080816 J47 (2.2-  1.6-) 
080531 300  0.1-  0.2+    080709 H45  0.6+  0.0     080817 B37  0.5-  0.8+  
080531 367  1.3+  0.6-    080709 H45  0.5+  0.1+    080817 B37  0.2-  1.2+  
080531 367  0.0   0.2-    080709 H45  0.4+  0.3-    080817 B37  0.4-  1.6+  
080531 367  0.6+  0.8+    080709 J38  1.1-  0.5+    080817 B37  0.3-  1.1+  
080601 J47  0.1-  0.3-    080709 J38  0.1-  0.2+    080819 118  0.0   0.5+  
080601 J47  0.1-  0.5+    080710 204  0.2+  0.4+    080819 118 (0.9-  2.1-) 
080601 J47  0.1-  0.8+    080710 204  0.2+  0.3+    080821 118  0.0   0.0   
080601 056  0.5-  0.4+    080711 130  0.3+  0.1-    080821 118  0.1-  0.5-  
080601 056  0.4+  0.2-    080711 130  0.4+  0.1+    080821 235  0.3-  0.5-  
080601 056  0.4-  0.0     080711 130  0.1-  0.1-    080824 235  0.6+  0.2+  
080603 H06  0.9-  1.0+    080711 130  0.2-  0.2-    080824 213  0.1-  0.1+  
080603 H06 (4.1-  7.3-)   080711 H45  0.2-  0.1+    080824 213  0.2-  0.1+  
080606 J40  1.1-  0.5+    080711 H45  0.2-  0.2-    080826 H45  1.1+  1.0+  
080606 J40  0.0   0.1+    080711 H45  0.1-  0.0     080826 H45  1.5+  0.5+  
080606 J40  0.7+  0.7+    080711 H45  0.1-  0.3-    080826 H45 (2.4+  0.2-) 
080606 J40  1.5+  0.6+    080711 H45  0.1-  0.3-    080826 H45  1.2+  0.3-  
080606 F85  0.2-  0.5-    080712 J27  0.4-  0.4+    080826 H45  1.6+  0.2+  
080606 F85  0.0   0.2-    080712 J27  0.8+  0.7+    080827 215  1.8-  0.8-  
080606 F85  0.0   0.2-    080712 J27  0.1+  0.3+    080831 118  0.1-  1.2-  
080606 367  0.4+  0.5+    080712 H45  0.1-  0.1+    080831 118  0.1-  0.4-  
080606 367  0.3+  0.1-    080712 H45  0.0   0.0     080831 118 (0.4+  2.0-) 
080606 367  0.5-  0.1-    080712 H45  0.0   0.1-    080901 118  0.5+  0.4-  
080608 J47 (0.2-  2.6-)   080712 H45  0.0   0.1-    080901 118  0.4-  0.5+  
080608 J47  0.5-  0.8-    080712 H45  0.2+  0.0     080901 A77  0.1+  0.9+  
080608 J47  0.6+  0.7-    080712 H45  0.2+  0.2-    080901 A77  0.9+  0.2-  
080609 585  0.9-  1.6-    080713 H47  0.4-  0.2+    080902 B37  0.7-  0.1+  
080609 585  1.0-  1.5-    080713 H47  0.7+  0.2+    080902 B37  0.8-  0.8-  
080609 585  1.5+  0.0     080715 J47  0.0   0.1+    080902 B37  0.5-  0.4-  
080609 585 (0.1+  2.2+)   080715 J47  0.3+  0.0     080902 B37  0.1-  0.8-  
080609 585  0.5+  1.7-    080715 J47  0.0   0.0     080902 B37  0.1-  0.2-  
080609 585 (2.2-  3.5-)   080715 J47  0.0   0.1+    080902 B37  0.4-  0.5-  
080609 118  0.2-  0.3+    080715 H45  0.2-  0.0     080908 900  0.1+  0.2+  
080610 118  0.2+  0.3+    080715 H45  0.2-  0.3+    080908 900  0.4+  0.7-  
080610 118  0.0   0.2+    080715 H45  0.4-  0.0     080909 349  0.1-  0.1+  
080610 118  0.7+  0.6+    080715 H45  0.1-  0.0     080909 349  0.3-  0.0   
080612 D81  0.7-  0.2-    080715 H45  0.0   0.2-    080914 B37  1.4-  1.3+  
080612 D81  0.5+  0.2-    080715 235  1.1-  1.0-    080914 B37  1.0-  1.0+  
080612 D81 (0.1+  2.0-)   080715 B49  0.0   1.0-    080914 B37  0.4-  0.5+  
080612 D81  0.2+  0.0     080715 213  0.1+  0.5+    080914 B37  0.2+  0.1+  
080612 372  0.4-  0.1-    080716 213  0.7+  0.9+    080917 204  0.7-  1.0+  
080612 372  0.1+  0.2-    080716 H45  0.0   0.1+    080917 204  0.4-  0.7+  
080612 349  0.5+  0.8+    080716 H45  0.1+  0.2+    080926 B42  0.3-  0.1-  
080612 349  0.3+  0.7+    080716 H45  0.4+  0.3+    080926 B42  0.1+  0.4-  
080612 900  0.2+  0.5+    080716 H45  0.4+  0.0     081006 130  0.5+  0.3-  
080612 349  0.1+  0.3+    080716 H45  0.1-  0.3+    081006 130  0.6-  0.1+  
080612 900  0.1+  0.4+    080716 H45  0.2+  0.2+    081006 130  0.5+  0.2-  
080613 B49  1.2-  0.4+    080717 213  0.2-  0.5-    081006 130  1.0-  0.4+  
080613 J51  0.3-  0.8-    080717 213  0.2-  0.5-    081010 B37  0.5+  1.5-  
080613 J51  0.0   1.0-    080719 118  0.0   0.5-    081010 B37  1.0+  0.0   
080613 J51  0.0   0.5-    080719 118  0.1-  0.1+    081010 B37  0.0   0.3-  
080614 H06 (0.7+  2.3-)   080719 118  0.2+  0.2-    081010 B37  0.0   0.2+  
080614 H06  0.4-  0.8+    080724 151  0.6-  0.8-    081030 372  0.9-  0.2-  
080615 H06  1.3-  0.9-    080724 151  0.8-  0.9-    081030 372  0.1-  0.5+  
080615 H06 (1.5+  3.1-)   080724 151  1.1-  1.1-    081030 372  0.5+  0.2+  
080616 J70  0.9+  1.4+    080724 J53  0.4-  0.1+    081130 372  0.1+  0.6+  
080616 J70  1.3+  0.8+    080724 J53  0.2-  0.3+    081130 372  0.3-  0.2+  
080616 J70  1.2+  0.1+    080724 J53  0.1+  0.2-                            

